Weather History for Pauls Valley, OK

Change the Weather History Date:

Monday, September 23, 2013

  Actual Average (KADH) Record (KADH)
Temperature  
Mean Temperature 68 °F -  
Max Temperature 82 °F 82 °F 97 °F (1939)
Min Temperature 53 °F 58 °F 42 °F (1975)
Cooling Degree Days 2    
Growing Degree Days 18 (Base 50)    
Moisture  
Dew Point 51 °F    
Average Humidity 58    
Maximum Humidity 88    
Minimum Humidity 32    
Precipitation  
Precipitation 0.00 in - - ()
Sea Level Pressure  
Sea Level Pressure 29.84 in    
Wind  
Wind Speed 7 mph (SE)    
Max Wind Speed 16 mph    
Max Gust Speed 23 mph    
Visibility 10 miles    
Events      
Averages and records for this station are not official NWS values.
T = Trace of Precipitation, MM = Missing Value Source: NWS Daily Summary

Daily Weather History Graph

Daily Weather History Graph

Search for Another Location

Airport:

Trip Planner

Search our weather history database for the weather conditions in past years. The results will help you decide how hot, cold, wet, or windy it might be!

Date:

Astronomy

Sep. 23, 2013 Rise Set
Actual Time 7:17 AM CDT 7:23 PM CDT
Civil Twilight 6:52 AM CDT 7:48 PM CDT
Nautical Twilight 6:23 AM CDT 8:18 PM CDT
Astronomical Twilight 5:53 AM CDT 8:47 PM CDT
Moon 10:08 PM CDT (9/23) 11:27 AM CDT (9/23)
Length of Visible Light 12h 56m
Length of Day
12h 05m
Waning Gibbous, 81% of the Moon is Illuminated
Sep 23
Waning Gibbous
Sep 26
Last Quarter
Oct 4
New
Oct 11
First Quarter
Oct 18
Full

Hourly Weather History & Observations

Time (CDT) Temp. Dew Point Humidity Pressure Visibility Wind Dir Wind Speed Gust Speed Precip Events Conditions
12:15 AM 60.8 °F 50.0 °F 68% 29.87 in 10.0 mi South 4.6 mph - N/A   Unknown
12:35 AM 59.0 °F 50.0 °F 72% 29.87 in 10.0 mi South 4.6 mph - N/A   Unknown
12:55 AM 60.8 °F 50.0 °F 68% 29.87 in 10.0 mi SE 4.6 mph - N/A   Unknown
1:15 AM 59.0 °F 50.0 °F 72% 29.86 in 10.0 mi SE 4.6 mph - N/A   Unknown
1:35 AM 59.0 °F 50.0 °F 72% 29.86 in 10.0 mi SE 3.5 mph - N/A   Unknown
1:55 AM 59.0 °F 50.0 °F 72% 29.86 in 10.0 mi SSE 5.8 mph - N/A   Unknown
2:15 AM 59.0 °F 50.0 °F 72% 29.85 in 10.0 mi SE 6.9 mph - N/A   Unknown
2:35 AM 59.0 °F 50.0 °F 72% 29.85 in 10.0 mi SSE 4.6 mph - N/A   Unknown
2:55 AM 57.2 °F 50.0 °F 77% 29.85 in 10.0 mi SSE 6.9 mph - N/A   Unknown
3:15 AM 57.2 °F 50.0 °F 77% 29.84 in 10.0 mi SSE 6.9 mph - N/A   Unknown
3:35 AM 55.4 °F 50.0 °F 82% 29.84 in 10.0 mi SSE 4.6 mph - N/A   Unknown
3:55 AM 55.4 °F 50.0 °F 82% 29.83 in 10.0 mi SSE 5.8 mph - N/A   Unknown
4:15 AM 55.4 °F 50.0 °F 82% 29.84 in 10.0 mi SE 4.6 mph - N/A   Unknown
4:35 AM 55.4 °F 50.0 °F 82% 29.84 in 10.0 mi SE 3.5 mph - N/A   Unknown
4:55 AM 55.4 °F 50.0 °F 82% 29.85 in 10.0 mi Calm Calm - N/A   Unknown
5:15 AM 55.4 °F 50.0 °F 82% 29.84 in 10.0 mi SE 4.6 mph - N/A   Unknown
5:35 AM 55.4 °F 50.0 °F 82% 29.85 in 10.0 mi SE 3.5 mph - N/A   Unknown
5:55 AM 55.4 °F 50.0 °F 82% 29.86 in 10.0 mi SSE 4.6 mph - N/A   Unknown
6:15 AM 55.4 °F 50.0 °F 82% 29.86 in 10.0 mi SSE 4.6 mph - N/A   Unknown
6:35 AM 55.4 °F 50.0 °F 82% 29.86 in 10.0 mi SE 5.8 mph - N/A   Unknown
6:55 AM 53.6 °F 50.0 °F 88% 29.87 in 4.0 mi Calm Calm - N/A   Mist
7:15 AM 53.6 °F 50.0 °F 88% 29.87 in 2.5 mi SE 5.8 mph - N/A   Mist
7:35 AM 55.4 °F 50.0 °F 82% 29.87 in 10.0 mi SE 8.1 mph - N/A   Unknown
7:55 AM 55.4 °F 51.8 °F 88% 29.87 in 10.0 mi SE 8.1 mph - N/A   Unknown
8:15 AM 59.0 °F 51.8 °F 77% 29.87 in 10.0 mi SE 3.5 mph - N/A   Unknown
8:35 AM 59.0 °F 51.8 °F 77% 29.87 in 10.0 mi ESE 6.9 mph - N/A   Unknown
8:55 AM 60.8 °F 51.8 °F 72% 29.87 in 10.0 mi SE 8.1 mph - N/A   Unknown
9:15 AM 62.6 °F 53.6 °F 72% 29.88 in 10.0 mi SSE 6.9 mph - N/A   Unknown
9:35 AM 64.4 °F 53.6 °F 68% 29.88 in 10.0 mi SSE 12.7 mph - N/A   Unknown
9:55 AM 66.2 °F 53.6 °F 64% 29.88 in 10.0 mi SSE 10.4 mph 16.1 mph N/A   Unknown
10:15 AM 68.0 °F 51.8 °F 56% 29.88 in 10.0 mi SSE 13.8 mph 18.4 mph N/A   Unknown
10:35 AM 69.8 °F 51.8 °F 53% 29.88 in 10.0 mi SSE 13.8 mph 18.4 mph N/A   Unknown
10:55 AM 71.6 °F 51.8 °F 50% 29.88 in 10.0 mi SSE 12.7 mph 17.3 mph N/A   Unknown
11:15 AM 73.4 °F 51.8 °F 47% 29.88 in 10.0 mi SSE 12.7 mph - N/A   Unknown
11:35 AM 73.4 °F 51.8 °F 47% 29.87 in 10.0 mi SSE 11.5 mph 16.1 mph N/A   Unknown
11:55 AM 73.4 °F 51.8 °F 47% 29.87 in 10.0 mi SE 10.4 mph 18.4 mph N/A   Unknown
12:15 PM 77.0 °F 53.6 °F 44% 29.86 in 10.0 mi SSE 13.8 mph 18.4 mph N/A   Unknown
12:35 PM 77.0 °F 51.8 °F 41% 29.85 in 10.0 mi SSE 15.0 mph 19.6 mph N/A   Unknown
1:15 PM 78.8 °F 51.8 °F 39% 29.84 in 10.0 mi SSE 15.0 mph 23.0 mph N/A   Unknown
1:35 PM 78.8 °F 51.8 °F 39% 29.83 in 10.0 mi SSW 11.5 mph 18.4 mph N/A   Unknown
1:55 PM 80.6 °F 51.8 °F 37% 29.81 in 10.0 mi SSE 11.5 mph - N/A   Unknown
2:15 PM 80.6 °F 51.8 °F 37% 29.80 in 10.0 mi SE 12.7 mph 20.7 mph N/A   Unknown
2:35 PM 80.6 °F 51.8 °F 37% 29.79 in 10.0 mi SSE 10.4 mph 18.4 mph N/A   Unknown
2:55 PM 80.6 °F 51.8 °F 37% 29.79 in 10.0 mi SE 9.2 mph 19.6 mph N/A   Unknown
3:15 PM 82.4 °F 51.8 °F 35% 29.78 in 10.0 mi SSE 15.0 mph 20.7 mph N/A   Unknown
3:35 PM 80.6 °F 50.0 °F 34% 29.78 in 10.0 mi SSE 9.2 mph - N/A   Unknown
3:55 PM 82.4 °F 50.0 °F 32% 29.77 in 10.0 mi SE 16.1 mph 20.7 mph N/A   Unknown
4:15 PM 82.4 °F 50.0 °F 32% 29.76 in 10.0 mi South 12.7 mph 20.7 mph N/A   Unknown
4:35 PM 82.4 °F 50.0 °F 32% 29.76 in 10.0 mi SSE 10.4 mph 17.3 mph N/A   Unknown
4:55 PM 82.4 °F 50.0 °F 32% 29.76 in 10.0 mi SSE 8.1 mph - N/A   Unknown
5:15 PM 82.4 °F 50.0 °F 32% 29.75 in 10.0 mi SSE 13.8 mph 19.6 mph N/A   Unknown
5:35 PM 82.4 °F 50.0 °F 32% 29.76 in 10.0 mi South 13.8 mph - N/A   Unknown
5:55 PM 80.6 °F 50.0 °F 34% 29.77 in 10.0 mi SSE 11.5 mph - N/A   Unknown
6:15 PM 80.6 °F 50.0 °F 34% 29.78 in 10.0 mi SE 8.1 mph - N/A   Unknown
6:35 PM - - N/A% - - North - - N/A   Unknown
6:55 PM 78.8 °F 50.0 °F 36% 29.79 in 10.0 mi SSE 4.6 mph - N/A   Unknown
7:15 PM 77.0 °F 50.0 °F 39% 29.80 in 10.0 mi SSE 5.8 mph - N/A   Unknown
7:35 PM 75.2 °F 50.0 °F 41% 29.81 in 10.0 mi SE 4.6 mph - N/A   Unknown
7:55 PM 73.4 °F 50.0 °F 44% 29.81 in 10.0 mi SE 3.5 mph - N/A   Unknown
8:15 PM 73.4 °F 50.0 °F 44% 29.83 in 10.0 mi SE 4.6 mph - N/A   Unknown
8:35 PM 71.6 °F 51.8 °F 50% 29.83 in 10.0 mi ESE 4.6 mph - N/A   Unknown
8:55 PM 71.6 °F 51.8 °F 50% 29.84 in 10.0 mi ESE 3.5 mph - N/A   Unknown
9:15 PM 69.8 °F 51.8 °F 53% 29.84 in 10.0 mi SE 6.9 mph - N/A   Unknown
9:35 PM 69.8 °F 50.0 °F 49% 29.84 in 10.0 mi SE 5.8 mph - N/A   Unknown
9:55 PM 69.8 °F 50.0 °F 49% 29.85 in 10.0 mi SE 5.8 mph - N/A   Unknown
10:15 PM 68.0 °F 50.0 °F 52% 29.85 in 10.0 mi SE 4.6 mph - N/A   Unknown
10:35 PM 68.0 °F 50.0 °F 52% 29.86 in 10.0 mi SE 3.5 mph - N/A   Unknown
10:55 PM 68.0 °F 50.0 °F 52% 29.87 in 10.0 mi SE 3.5 mph - N/A   Unknown
11:15 PM 66.2 °F 50.0 °F 56% 29.87 in 10.0 mi ESE 4.6 mph - N/A   Unknown
11:35 PM 66.2 °F 50.0 °F 56% 29.87 in 10.0 mi SE 3.5 mph - N/A   Unknown
11:55 PM 64.4 °F 50.0 °F 59% 29.87 in 10.0 mi SE 3.5 mph - N/A   Unknown